Showing default

SPOT 3, 22823

Orbit data source: Space-Track

SPOT 3, 22823 is a payload satellite owned by CNES (FR) in SSO that was launched on Sun, 26 Sep 1993 UTC via an ARIANE 40 launch vehicle from the French Guiana (FRGUI). Payload-class satellites include a variety of spacecraft equipped with specific instruments for various scientific and technological missions. These include communications satellites like Starlink; space stations such as the ISS; scientific satellites like the Hubble; Earth observation satellites from companies like Planet Labs, Umbra, and HawkEye 360; GPS; miniature CubeSats for education and research; and military/defense satellites.

Loading next visibility...
Identifier
22823, 1993-061A
Orbit
SSO
Country
Flag of FRFR
Related business
Manufacturer
MMS/Toulouse
Mission
Non-operational Civil Imaging
Bus & Motor
SPOT, SPOT AOCS
Mass
1,900 kg wet, 1,750 kg dry
Launch date (UTC)
1993-09-26 (32 years ago)
Launch vehicle
ARIANE 40
Launch site
French Guiana (FRGUI)
Object type
Payload
Rocket body
Debris
Shape & HBR
Box + 1 Pan, 4.1 m
Radar Cross Section
12.991 m², Large (>1 m²)

Expand to show TLE details & history
Last TLE update: 6 hours ago

TLE from 6 hours ago
0 SPOT 3
1 22823U 93061A   25308.19382921  .00000110  00000-0  73019-4 0  9995
2 22823  98.8907   6.6365 0017074 164.5194 195.6507 14.20003427662645
Epoch: 2025-11-04T04:39Z
TLE epoch observation values (Epoch: 2025-11-04T04:39:06.843Z)
Latitude
-0.00009°
Longitude
-106.82636°
Altitude
840.097 km
Speed
7.427 km/s
True Right ascension
00h 26m 32s
True Declination
0° 00' 00"
Sunlit
Object was in full shadow at epoch
Visualization orbit readout
Latitude
Unknown
Longitude
Unknown
Altitude
Unknown
Speed
Unknown
Apparent Right ascension
Unknown
Apparent Declination
Unknown
Sunlit
N/A
Visualization observer readout
Local Sidereal Time
07:04:19
Azimuth
Unknown
Elevation
Unknown
Doppler factor
Unknown
Orbital elements
Apogee altitude
834.803 km
Perigee altitude
810.214 km
Semi-major axis
7,200.646 km
Eccentricity
0.00171
Inclination
98.8907°
RAAN
6.6365°
Arg. of periapsis
164.5194°
True anomaly
195.59803°
Mean anomaly
195.6507°
Eccentric anomaly
195.62435°
Mean motion
3.55211 °/min
Orbital period
101.35 mins
BSTAR
0.000073019
Loading maneuver chart data...
Computing Atmospheric mass density...
Loading historical data...
Loading historical data...
Loading historical data...
Loading historical data...
Loading historical data...
Loading historical data...
Loading historical data...

Documentation

Showing up to 5 results
|